TimeEST,TemperatureF,Dew PointF,Humidity,Sea Level PressureIn,VisibilityMPH,Wind Direction,Wind SpeedMPH,Gust SpeedMPH,PrecipitationIn,Events,Conditions,WindDirDegrees,DateUTC
12:55 AM,31.3,27.3,85,30.14,10.0,Calm,Calm,-,N/A,,Clear,0,2012-11-26 05:55:00
1:55 AM,30.4,25.7,83,30.14,10.0,Calm,Calm,-,N/A,,Clear,0,2012-11-26 06:55:00
2:55 AM,30.4,25.5,82,30.14,10.0,Calm,Calm,-,N/A,,Clear,0,2012-11-26 07:55:00
3:55 AM,28.9,25.5,87,30.14,10.0,Calm,Calm,-,N/A,,Clear,0,2012-11-26 08:55:00
4:55 AM,29.7,26.6,88,30.15,10.0,Calm,Calm,-,N/A,,Clear,0,2012-11-26 09:55:00
5:55 AM,28.8,25.7,88,30.17,10.0,Calm,Calm,-,N/A,,Clear,0,2012-11-26 10:55:00
6:55 AM,28.6,26.2,91,30.19,10.0,Calm,Calm,-,N/A,,Clear,0,2012-11-26 11:55:00
7:55 AM,31.1,27.1,85,30.20,10.0,Calm,Calm,-,N/A,,Clear,0,2012-11-26 12:55:00
8:55 AM,43.3,29.1,57,30.22,10.0,Calm,Calm,-,N/A,,Clear,0,2012-11-26 13:55:00
9:55 AM,49.6,26.8,41,30.24,10.0,Calm,Calm,-,N/A,,Clear,0,2012-11-26 14:55:00
10:55 AM,58.3,23.7,26,30.24,10.0,West,5.8,-,N/A,,Clear,260,2012-11-26 15:55:00
11:55 AM,63.0,21.7,21,30.21,10.0,WNW,6.9,-,N/A,,Clear,290,2012-11-26 16:55:00
12:55 PM,66.4,17.8,16,30.18,10.0,WNW,8.1,-,N/A,,Clear,290,2012-11-26 17:55:00
1:55 PM,68.7,21.0,16,30.17,10.0,Calm,Calm,-,N/A,,Clear,0,2012-11-26 18:55:00
2:55 PM,68.9,23.4,18,30.16,10.0,Variable,5.8,-,N/A,,Clear,0,2012-11-26 19:55:00
3:55 PM,68.7,25.3,20,30.15,10.0,SE,8.1,-,N/A,,Clear,140,2012-11-26 20:55:00
4:55 PM,64.2,26.1,24,30.17,10.0,SSE,4.6,-,N/A,,Clear,160,2012-11-26 21:55:00
5:55 PM,56.8,28.8,34,30.17,10.0,ESE,3.5,-,N/A,,Clear,120,2012-11-26 22:55:00
6:55 PM,50.9,29.8,44,30.18,10.0,SE,3.5,-,N/A,,Clear,130,2012-11-26 23:55:00
7:55 PM,50.2,28.2,43,30.19,10.0,SSE,4.6,-,N/A,,Clear,150,2012-11-27 00:55:00
8:55 PM,42.6,30.2,61,30.19,10.0,Calm,Calm,-,N/A,,Clear,0,2012-11-27 01:55:00
9:55 PM,45.9,28.4,51,30.20,10.0,Calm,Calm,-,N/A,,Partly Cloudy,0,2012-11-27 02:55:00
10:55 PM,38.8,30.2,71,30.20,10.0,Calm,Calm,-,N/A,,Partly Cloudy,0,2012-11-27 03:55:00
11:55 PM,38.7,30.0,71,30.20,10.0,Calm,Calm,-,N/A,,Scattered Clouds,0,2012-11-27 04:55:00